DateTimeUTC,F1_A11,F1_S11,BsB_S11,BsG_S11,BsR_S11,BbsB_S11,BbsG_S11,BbsR_S11,BaB_A11,BaG_A11,BaR_A11,Tu_S11,T_S11,Uu_S11,U_S11,P_S11,T1_A11
2021-07-05T00:00:00Z,00000200,20000000,,,,,,,-000.14,-000.15,0000.24,19.5,26.0,10.0,06.7,0668.3,31.2
2021-07-05T00:01:00Z,00000200,20000000,,,,,,,0000.22,-000.06,-000.27,19.5,26.0,09.9,06.7,0668.3,31.2
2021-07-05T00:02:00Z,00000200,20000000,,,,,,,0000.07,-000.31,0000.17,19.5,26.0,09.9,06.7,0668.3,31.2
2021-07-05T00:03:00Z,00000200,60000000,,,,,,,-000.12,0000.37,0000.25,19.5,26.0,09.9,06.7,0668.3,31.2
2021-07-05T00:04:00Z,00000200,40000000,-000.29,0000.54,-000.27,-000.05,-000.01,0000.01,0000.32,0000.17,-000.10,19.5,25.8,09.9,06.8,0669.2,31.2
2021-07-05T00:05:00Z,00000200,00000000,0000.94,0000.22,0000.17,-000.36,-000.04,0000.00,-000.08,-000.29,0000.10,19.5,25.8,09.9,06.8,0669.3,31.2
2021-07-05T00:06:00Z,00000200,00000000,-000.25,0000.18,-000.12,-000.07,-000.06,-000.01,-000.27,0000.31,-000.04,19.5,25.8,09.9,06.8,0669.3,31.2
2021-07-05T00:07:00Z,00000200,00000000,0000.20,0000.18,0000.04,-000.20,-000.12,0000.18,0000.27,0000.07,-000.15,19.5,25.8,09.9,06.8,0669.3,31.2
2021-07-05T00:08:00Z,00000200,00000000,-000.69,-000.05,0000.06,-000.01,-000.28,-000.10,0000.16,-000.30,0000.05,19.5,25.7,09.9,06.8,0669.3,31.2
2021-07-05T00:09:00Z,00000200,00000000,0000.05,-000.24,-000.14,0000.36,-000.10,-000.19,-000.02,0000.66,0000.30,19.5,25.7,10.0,06.8,0669.3,31.2
2021-07-05T00:10:00Z,00000200,00000000,0000.15,0000.05,0000.21,-000.28,-000.07,0000.03,0000.05,-000.08,-000.05,19.5,25.7,10.0,06.9,0669.3,31.2
2021-07-05T00:11:00Z,00000200,00000000,0000.21,0000.37,-000.14,-000.28,0000.16,-000.41,-000.12,-000.20,0000.07,19.5,25.7,09.9,06.8,0669.3,31.2
2021-07-05T00:12:00Z,00000200,00000000,0000.01,0000.46,0000.11,-000.30,-000.21,0000.02,0000.09,-000.25,0000.05,19.5,25.7,09.9,06.8,0669.3,31.2
2021-07-05T00:13:00Z,00000200,00000000,-000.01,0000.35,-000.37,0000.48,0000.04,-000.37,0000.02,0000.38,-000.22,19.4,25.7,10.0,06.8,0669.3,31.2
2021-07-05T00:14:00Z,00000200,00000000,0000.42,0000.43,-000.00,0000.64,0000.48,0000.03,-000.04,0000.04,0000.09,19.4,25.7,10.0,06.9,0669.3,31.2
2021-07-05T00:15:00Z,00000200,00000000,0000.43,0000.49,0000.03,0000.25,0000.02,0000.25,0000.02,-000.13,0000.06,19.4,25.7,10.2,07.0,0669.3,31.2
2021-07-05T00:16:00Z,00000200,00000000,0000.02,0000.18,-000.10,0000.21,-000.10,0000.17,0000.46,0000.11,0000.05,19.4,25.6,10.2,07.0,0669.3,31.2
2021-07-05T00:17:00Z,00000200,00000000,0000.81,-000.07,-000.07,0000.05,0000.13,0000.03,-000.16,0000.14,-000.10,19.4,25.6,10.3,07.0,0669.3,31.2
2021-07-05T00:18:00Z,00000200,00000000,0000.29,-000.15,0000.15,-000.11,0000.00,0000.32,0000.06,0000.13,0000.30,19.4,25.6,10.3,07.0,0669.3,31.2
2021-07-05T00:19:00Z,00000200,00000000,0000.45,-000.17,0000.04,0000.28,0000.01,0000.20,0000.03,0000.22,-000.05,19.4,25.6,10.3,07.0,0669.3,31.2
2021-07-05T00:20:00Z,00000200,00000000,0000.35,0000.10,0000.47,0000.06,-000.10,0000.19,0000.30,0000.12,0000.18,19.4,25.6,10.3,07.0,0669.3,31.2
2021-07-05T00:21:00Z,00000200,00000000,0000.44,0000.61,0000.03,0000.19,-000.01,0000.08,-000.11,0000.03,0000.12,19.4,25.6,10.3,07.0,0669.3,31.2
2021-07-05T00:22:00Z,00000200,00000000,0000.60,0000.21,-000.12,-000.05,0000.08,-000.13,0000.26,0000.23,0000.25,19.4,25.6,10.2,07.0,0669.3,31.2
2021-07-05T00:23:00Z,00000200,00000000,0001.21,0000.34,0000.18,0000.44,-000.05,0000.15,0000.10,-000.31,-000.32,19.5,25.6,10.2,07.0,0669.3,31.2
2021-07-05T00:24:00Z,00000200,00000000,0000.53,0000.08,0000.30,0000.15,0000.22,0000.16,-000.20,0000.21,0000.19,19.5,25.7,10.1,07.0,0669.3,31.2
2021-07-05T00:25:00Z,00000200,00000000,0000.23,-000.08,0000.00,0000.32,0000.11,0000.17,0000.24,-000.25,-000.15,19.6,25.7,10.1,07.0,0669.3,31.2
2021-07-05T00:26:00Z,00000200,00000000,0000.52,0000.20,0000.01,0000.22,0000.42,0000.17,0000.27,0000.26,0000.22,19.6,25.8,10.1,07.0,0669.3,31.2
2021-07-05T00:27:00Z,00000200,00000000,0000.14,0000.21,0000.15,0000.12,0000.21,-000.15,-000.27,0000.17,-000.33,19.6,25.8,10.1,06.9,0669.3,31.2
2021-07-05T00:28:00Z,00000200,00000000,0000.13,0000.25,0000.12,-000.03,0000.14,0000.00,-000.11,0000.12,0000.42,19.6,25.8,10.1,07.0,0669.3,31.2
2021-07-05T00:29:00Z,00000200,00000000,0000.13,-000.09,0000.37,0000.18,0000.09,0000.05,0000.32,-000.32,0000.07,19.6,25.8,10.0,06.9,0669.3,31.2
2021-07-05T00:30:00Z,00000200,00000000,0000.28,0000.16,0000.42,-000.04,-000.01,0000.10,-000.08,0000.16,-000.47,19.6,25.7,10.0,06.9,0669.3,31.2
2021-07-05T00:31:00Z,00000200,00000000,0000.31,0000.12,-000.16,0000.17,-000.03,-000.24,0000.15,0000.16,0000.16,19.6,25.7,10.0,06.9,0669.3,31.2
2021-07-05T00:32:00Z,00000200,00000000,0000.08,0000.32,0000.07,0000.09,0000.19,0000.16,-000.07,-000.36,-000.22,19.6,25.7,10.0,06.9,0669.3,31.2
2021-07-05T00:33:00Z,00000200,00000000,0000.78,0000.23,0000.16,-000.10,0000.14,0000.16,0000.05,0000.56,0000.32,19.5,25.7,10.0,06.8,0669.3,31.2
2021-07-05T00:34:00Z,00000200,00000000,0000.83,-000.02,0000.02,0000.11,-000.01,0000.06,0000.51,-000.09,0000.28,19.5,25.7,09.9,06.8,0669.3,31.2
2021-07-05T00:35:00Z,00000200,00000000,0000.14,-000.12,0000.43,0000.53,0000.12,0000.37,-000.73,0000.05,-000.05,19.5,25.7,10.0,06.9,0669.3,31.2
2021-07-05T00:36:00Z,00000200,00000000,0000.56,0000.60,0000.26,-000.08,0000.05,0000.12,0000.53,0000.00,-000.07,19.5,25.7,10.0,06.8,0669.3,31.2
2021-07-05T00:37:00Z,00000200,00000000,0000.21,-000.14,0000.06,-000.00,0000.08,0000.10,-000.34,0000.24,0000.05,19.5,25.7,10.0,06.9,0669.3,31.2
2021-07-05T00:38:00Z,00000200,00000000,0000.36,0000.08,-000.09,0000.33,-000.08,-000.01,-000.00,-000.34,-000.15,19.6,25.7,09.9,06.8,0669.3,31.2
2021-07-05T00:39:00Z,00000200,00000000,0001.12,0000.34,0000.26,0000.09,0000.17,0000.20,0000.17,0000.14,0000.45,19.6,25.7,10.0,06.9,0669.3,31.2
2021-07-05T00:40:00Z,00000200,00000000,0000.62,-000.03,0000.14,-000.56,-000.03,0000.09,-000.06,-000.06,-000.30,19.6,25.7,09.9,06.8,0669.3,31.2
2021-07-05T00:41:00Z,00000200,00000000,0000.51,0000.21,-000.02,0000.16,0000.13,-000.01,0000.17,-000.02,0000.03,19.6,25.7,09.9,06.8,0669.3,31.2
2021-07-05T00:42:00Z,00000200,00000000,0000.12,0000.18,0000.12,0000.11,0000.02,0000.04,-000.45,-000.31,-000.17,19.6,25.8,09.7,06.7,0669.3,31.2
2021-07-05T00:43:00Z,00000200,00000000,0000.28,0000.34,0000.05,0000.28,-000.17,0000.05,0000.21,0000.43,0000.14,19.6,25.7,09.6,06.6,0669.3,31.2
2021-07-05T00:44:00Z,00000200,00000000,0000.37,0000.41,-000.10,0000.38,0000.15,-000.09,0000.43,-000.12,-000.01,19.5,25.7,09.8,06.7,0669.3,31.2
2021-07-05T00:45:00Z,00000200,00000000,-000.16,0000.43,0000.32,-000.41,0000.06,0000.21,-000.04,0000.31,0000.00,19.5,25.7,09.8,06.7,0669.3,31.2
2021-07-05T00:46:00Z,00000200,00000000,0000.42,0000.37,0000.24,-000.03,0000.17,0000.09,-000.20,-000.51,0000.14,19.5,25.7,09.7,06.7,0669.2,31.2
2021-07-05T00:47:00Z,00000200,00000000,0000.11,0000.05,0000.23,0000.22,-000.24,-000.17,0000.34,0000.27,-000.06,19.5,25.7,09.8,06.7,0669.2,31.2
2021-07-05T00:48:00Z,00000200,00000000,0000.65,-000.22,0000.22,-000.00,-000.02,0000.02,-000.07,0000.09,0000.15,19.5,25.7,09.7,06.6,0669.3,31.2
2021-07-05T00:49:00Z,00000200,00000000,0000.07,-000.13,0000.26,-000.06,-000.12,-000.10,-000.21,-000.07,-000.07,19.5,25.7,09.7,06.7,0669.2,31.2
2021-07-05T00:50:00Z,00000200,00000000,0000.88,0000.21,0000.48,0000.16,0000.16,0000.48,0000.07,0000.31,-000.15,19.4,25.6,09.8,06.7,0669.3,31.2
2021-07-05T00:51:00Z,00000200,00000000,-000.14,0000.36,0000.32,0000.53,-000.05,-000.12,-000.15,-000.04,0000.01,19.4,25.6,09.8,06.7,0669.3,31.2
2021-07-05T00:52:00Z,00000200,00000000,0000.02,0000.18,-000.08,0000.20,0000.02,-000.30,0000.14,0000.02,0000.23,19.4,25.6,09.8,06.7,0669.2,31.2
2021-07-05T00:53:00Z,00000200,00000000,0000.44,0000.21,0000.20,-000.12,0000.01,0000.31,0000.20,0000.02,-000.40,19.4,25.6,09.9,06.8,0669.3,31.2
2021-07-05T00:54:00Z,00000200,00000000,0000.05,0000.44,0000.45,0000.43,0000.35,0000.53,0000.11,0000.32,0000.14,19.4,25.6,09.8,06.7,0669.2,31.2
2021-07-05T00:55:00Z,00000200,00000000,-000.06,0000.24,0000.08,0000.04,-000.08,0000.37,0000.12,0000.03,0000.48,19.4,25.6,09.8,06.7,0669.2,31.2
2021-07-05T00:56:00Z,00000200,00000000,0000.24,0000.12,0000.18,0000.09,0000.04,0000.15,-000.07,-000.10,0000.00,19.4,25.6,09.8,06.8,0669.2,31.2
2021-07-05T00:57:00Z,00000200,40000000,,,,,,,0000.05,-000.31,-000.19,19.4,25.6,09.5,06.5,0669.1,31.2
2021-07-05T00:58:00Z,00000200,60000000,,,,,,,-000.09,0000.08,-000.01,19.1,25.7,10.1,06.7,0668.2,31.1
2021-07-05T00:59:00Z,00000200,20000000,,,,,,,-000.03,0000.14,0000.53,19.1,25.8,09.9,06.6,0668.2,31.2
